Weather Roundup
Issued by NWS Chicago, IL

Home | Current Version | Previous Version | Text Only | Print | Product List | Glossary Off
Versions: 1 2 3 4 5 6 7 8 9 10 11 12 13 14 15 16 17 18 19 20 21 22 23 24 25 26 27 28 29 30 31 32 33 34 35 36 37 38 39 40 41 42 43 44 45 46 47 48 49 50

000
NZUS59 KLOT 080702
HRRLOT

CHICAGO AREA WEATHER ROUNDUP
NATIONAL WEATHER SERVICE CHICAGO/ROMEOVILLE IL
200 AM CDT WED JUL 08 2015

NOTE: "FAIR" INDICATES FEW OR NO CLOUDS BELOW 12,000 FEET WITH NO
SIGNIFICANT WEATHER AND/OR OBSTRUCTIONS TO VISIBILITY.

* THESE STATIONS ARE NOT UNDER NWS QUALITY CONTROL. THEY ALSO MAY NOT
  REPORT WEATHER SUCH AS PRECIPITATION OR FOG.

ILZ005-006-012>014-019>023-080800-
NORTHEAST ILLINOIS

CITY           SKY/WX    TMP DP  RH WIND       PRES   REMARKS
OHARE          MOCLDY    55  48  77 N7        30.10S
MIDWAY         MOCLDY    59  47  64 N5        30.10S
AURORA         MOCLDY    54  48  80 NW3       30.12S
LANSING*       PTCLDY    56  49  75 N6        30.09F
WAUKEGAN       MOCLDY    49  48  97 NW3       30.11S
DUPAGE AIRPORT MOCLDY    54  48  80 N6        30.11S
WHEELING       PTCLDY    54  48  80 N8        30.12S
NORTHERLY IS     N/A     57  49  74 N10         N/A
$$

WIZ051-052-058>065-066-070>072-080800-
SOUTHEAST WISCONSIN

CITY           SKY/WX    TMP DP  RH WIND       PRES   REMARKS
MILWAUKEE      MOCLDY    55  47  74 N3        30.12S
KENOSHA*       MOCLDY    48  46  93 NW5       30.12S
RACINE*        PTCLDY    55  47  74 N3        30.14R
$$

INZ001>003-010>013-019-020-080800-
NORTHWEST INDIANA

CITY           SKY/WX    TMP DP  RH WIND       PRES   REMARKS
GARY*          NOT AVBL
MICHIGAN CITY* NOT AVBL
RENSSELAER*    NOT AVBL
$$

LMZ740>746-080800-
SOUTHERN LAKE MICHIGAN

STATION/POSITION TIME  SKY/WX   TEMP WIND        PRES    VSBY
                                AIR  DIR/SP/G
                 (UTC)          (F)  (DEG/KT/KT) (MB)    (MI)
HARRISON CRIB    0600            58   10/ 17/ 21   N/A
BURNHAM HARBOR   0700            57  360/  8/ 14   N/A
CALUMET HARBOR   0600            59   10/  7/ 13   N/A
BURNS HARBOR     0600            61   40/ 15/ 18 1019.6R
MICHIGAN CITY    0600            60   20/ 17/ 19   N/A
$$

ABBREVIATIONS USED IN REMARKS
   TC - TEMPERATURE IN CELSIUS
  WCI - WIND CHILL INDEX
   HX - HEAT INDEX
  VSB - VISIBILITY
$$


USA.gov is the U.S. government's official web portal to all federal, state and local government web resources and services.